When you browse on this site, cookies collect data to enhance your experience and personalize the content and advertising you see.
Visit our Privacy Policy to learn more. By continuing to use the site, you agree to this use of cookies and data.
  • în România
  • Lista ţărilor
  • Pe 7 zile
  • Temperatura apei
  • Hartă satelitară
  • Meteo pe hartă
  • Widget-uri
  • user-avatar
    Intrare

    Meteo pe oră la San Fernando de Apure

    Astăzi, 18 Iunie, Marţi

    Timp Temperatura Precipitaţii Vânt Presiune Umiditate
    00:00 +25°C° 0 mm 1 m/s 756 mmHg 96%
    01:00 +25°C° 0 mm 1 m/s 756 mmHg 97%
    02:00 +24°C° 0 mm 1 m/s 755 mmHg 98%
    03:00 +24°C° 0.3 mm 1 m/s 756 mmHg 98%
    04:00 +24°C° 0.3 mm 1 m/s 756 mmHg 97%
    05:00 +25°C° 0.3 mm 1 m/s 756 mmHg 97%
    06:00 +25°C° 0.6 mm 1 m/s 756 mmHg 97%
    07:00 +23°C° 0.6 mm 0 m/s 757 mmHg 97%
    08:00 +23°C° 0.6 mm 0 m/s 757 mmHg 97%
    09:00 +23°C° 0.1 mm 0 m/s 757 mmHg 97%
    10:00 +25°C° 0.1 mm 1 m/s 757 mmHg 97%
    11:00 +25°C° 0.1 mm 1 m/s 757 mmHg 97%
    12:00 +26°C° 0 mm 1 m/s 757 mmHg 93%
    13:00 +27°C° 0 mm 1 m/s 756 mmHg 89%
    14:00 +28°C° 0 mm 1 m/s 755 mmHg 84%
    15:00 +28°C° 0 mm 1 m/s 754 mmHg 85%
    16:00 +28°C° 0 mm 1 m/s 754 mmHg 85%
    17:00 +26°C° 0 mm 0 m/s 753 mmHg 85%
    18:00 +25°C° 0 mm 0 m/s 754 mmHg 89%
    19:00 +26°C° 0 mm 1 m/s 754 mmHg 92%
    20:00 +25°C° 0 mm 1 m/s 754 mmHg 95%
    21:00 +25°C° 0 mm 1 m/s 755 mmHg 96%
    22:00 +23°C° 0 mm 0 m/s 756 mmHg 96%
    23:00 +23°C° 0 mm 0 m/s 756 mmHg 96%

    Mâine, 19 Iunie, Miercuri

    Timp Temperatura Precipitaţii Vânt Presiune Umiditate
    00:00 +23°C° 0.3 mm 0 m/s 756 mmHg 97%
    01:00 +25°C° 0.3 mm 1 m/s 755 mmHg 97%
    02:00 +25°C° 0.3 mm 1 m/s 755 mmHg 97%
    03:00 +25°C° 0.1 mm 1 m/s 755 mmHg 97%
    04:00 +25°C° 0.1 mm 1 m/s 755 mmHg 98%
    05:00 +24°C° 0.1 mm 1 m/s 755 mmHg 98%
    06:00 +25°C° 0.2 mm 2 m/s 755 mmHg 98%
    07:00 +25°C° 0.2 mm 2 m/s 755 mmHg 97%
    08:00 +26°C° 0.2 mm 2 m/s 756 mmHg 97%
    09:00 +26°C° 0.2 mm 2 m/s 756 mmHg 95%
    10:00 +27°C° 0.2 mm 2 m/s 756 mmHg 92%
    11:00 +28°C° 0.2 mm 3 m/s 756 mmHg 90%
    12:00 +29°C° 0.5 mm 3 m/s 755 mmHg 87%
    13:00 +29°C° 0.5 mm 3 m/s 755 mmHg 84%
    14:00 +30°C° 0.5 mm 3 m/s 754 mmHg 80%
    15:00 +29°C° 0.1 mm 3 m/s 754 mmHg 83%
    16:00 +29°C° 0.1 mm 2 m/s 753 mmHg 86%
    17:00 +28°C° 0.1 mm 2 m/s 753 mmHg 88%
    18:00 +27°C° 0 mm 2 m/s 753 mmHg 90%
    19:00 +26°C° 0 mm 2 m/s 754 mmHg 92%
    20:00 +26°C° 0 mm 2 m/s 754 mmHg 94%
    21:00 +26°C° 0 mm 2 m/s 755 mmHg 93%
    22:00 +26°C° 0 mm 2 m/s 755 mmHg 92%
    23:00 +26°C° 0 mm 2 m/s 756 mmHg 92%

    Poimâine, 20 Iunie, Joi

    Timp Temperatura Precipitaţii Vânt Presiune Umiditate
    00:00 +26°C° 0 mm 2 m/s 756 mmHg 92%
    01:00 +26°C° 0 mm 2 m/s 755 mmHg 93%
    02:00 +26°C° 0 mm 2 m/s 755 mmHg 93%
    03:00 +25°C° 0 mm 2 m/s 755 mmHg 94%
    04:00 +25°C° 0 mm 2 m/s 755 mmHg 95%
    05:00 +25°C° 0 mm 2 m/s 755 mmHg 96%
    06:00 +26°C° 0.1 mm 3 m/s 756 mmHg 94%
    07:00 +26°C° 0.1 mm 3 m/s 756 mmHg 93%
    08:00 +27°C° 0.1 mm 3 m/s 757 mmHg 91%
    09:00 +28°C° 0.2 mm 3 m/s 757 mmHg 90%
    10:00 +29°C° 0.2 mm 3 m/s 757 mmHg 88%
    11:00 +29°C° 0.2 mm 3 m/s 757 mmHg 86%
    12:00 +30°C° 0.6 mm 3 m/s 756 mmHg 83%
    13:00 +31°C° 0.6 mm 3 m/s 756 mmHg 80%
    14:00 +31°C° 0.6 mm 2 m/s 755 mmHg 77%
    15:00 +31°C° 1.1 mm 2 m/s 755 mmHg 81%
    16:00 +30°C° 1.1 mm 1 m/s 754 mmHg 85%
    17:00 +30°C° 1.1 mm 1 m/s 754 mmHg 89%
    18:00 +29°C° 0.4 mm 1 m/s 755 mmHg 90%
    19:00 +28°C° 0.4 mm 1 m/s 755 mmHg 91%
    20:00 +26°C° 0.4 mm 1 m/s 755 mmHg 93%
    21:00 +26°C° 1.9 mm 1 m/s 756 mmHg 94%
    22:00 +26°C° 1.9 mm 1 m/s 756 mmHg 94%
    23:00 +26°C° 1.9 mm 1 m/s 757 mmHg 95%

    21 Iunie, Vineri

    Timp Temperatura Precipitaţii Vânt Presiune Umiditate
    00:00 +26°C° 1 mm 1 m/s 756 mmHg 96%
    01:00 +25°C° 1 mm 1 m/s 756 mmHg 96%
    02:00 +25°C° 1 mm 2 m/s 756 mmHg 97%
    03:00 +25°C° 0.8 mm 2 m/s 756 mmHg 97%
    04:00 +25°C° 0.8 mm 2 m/s 756 mmHg 97%
    05:00 +25°C° 0.8 mm 2 m/s 756 mmHg 97%
    06:00 +26°C° 0 mm 3 m/s 756 mmHg 96%
    07:00 +26°C° 0 mm 3 m/s 757 mmHg 95%
    08:00 +26°C° 0 mm 3 m/s 757 mmHg 94%
    09:00 +28°C° 0.1 mm 4 m/s 757 mmHg 87%
    10:00 +29°C° 0.1 mm 4 m/s 758 mmHg 80%
    11:00 +30°C° 0.1 mm 5 m/s 758 mmHg 74%
    12:00 +32°C° 0 mm 4 m/s 757 mmHg 71%
    13:00 +33°C° 0 mm 4 m/s 756 mmHg 68%
    14:00 +33°C° 0 mm 4 m/s 755 mmHg 65%
    15:00 +33°C° 0 mm 3 m/s 755 mmHg 69%
    16:00 +32°C° 0 mm 2 m/s 754 mmHg 73%
    17:00 +32°C° 0 mm 1 m/s 754 mmHg 77%
    18:00 +30°C° 0.1 mm 1 m/s 754 mmHg 81%
    19:00 +29°C° 0.1 mm 1 m/s 755 mmHg 84%
    20:00 +27°C° 0.1 mm 1 m/s 755 mmHg 87%
    21:00 +27°C° 0.1 mm 2 m/s 756 mmHg 89%
    22:00 +26°C° 0.1 mm 2 m/s 756 mmHg 91%
    23:00 +26°C° 0.1 mm 2 m/s 757 mmHg 93%

    22 Iunie, Sâmbătă

    Timp Temperatura Precipitaţii Vânt Presiune Umiditate
    00:00 +26°C° 0.1 mm 2 m/s 757 mmHg 93%
    01:00 +26°C° 0.1 mm 2 m/s 756 mmHg 92%
    02:00 +25°C° 0.1 mm 2 m/s 756 mmHg 92%
    03:00 +25°C° 0 mm 2 m/s 756 mmHg 93%
    04:00 +25°C° 0 mm 2 m/s 756 mmHg 94%
    05:00 +25°C° 0 mm 2 m/s 756 mmHg 95%
    06:00 +25°C° 0 mm 2 m/s 756 mmHg 93%
    07:00 +26°C° 0 mm 3 m/s 757 mmHg 91%
    08:00 +27°C° 0 mm 4 m/s 757 mmHg 89%
    09:00 +28°C° 0.2 mm 4 m/s 757 mmHg 87%
    10:00 +28°C° 0.2 mm 4 m/s 757 mmHg 86%
    11:00 +29°C° 0.2 mm 4 m/s 757 mmHg 84%
    12:00 +29°C° 1.5 mm 3 m/s 756 mmHg 83%
    13:00 +30°C° 1.5 mm 3 m/s 756 mmHg 83%
    14:00 +30°C° 1.5 mm 3 m/s 755 mmHg 82%
    15:00 +30°C° 1.6 mm 2 m/s 754 mmHg 84%
    16:00 +30°C° 1.6 mm 2 m/s 754 mmHg 87%
    17:00 +30°C° 1.6 mm 1 m/s 753 mmHg 90%
    18:00 +29°C° 1.8 mm 1 m/s 754 mmHg 91%
    19:00 +28°C° 1.8 mm 1 m/s 754 mmHg 92%
    20:00 +27°C° 1.8 mm 2 m/s 755 mmHg 94%
    21:00 +26°C° 4 mm 2 m/s 755 mmHg 95%
    22:00 +26°C° 4 mm 2 m/s 756 mmHg 96%
    23:00 +25°C° 4 mm 2 m/s 756 mmHg 98%

    23 Iunie, Duminică

    Timp Temperatura Precipitaţii Vânt Presiune Umiditate
    00:00 +25°C° 2.4 mm 1 m/s 756 mmHg 98%
    01:00 +25°C° 2.4 mm 1 m/s 756 mmHg 98%
    02:00 +23°C° 2.4 mm 0 m/s 755 mmHg 98%
    03:00 +23°C° 1.9 mm 0 m/s 755 mmHg 98%
    04:00 +23°C° 1.9 mm 0 m/s 755 mmHg 98%
    05:00 +23°C° 1.9 mm 0 m/s 755 mmHg 98%
    06:00 +23°C° 1.3 mm 0 m/s 756 mmHg 98%
    07:00 +23°C° 1.3 mm 0 m/s 756 mmHg 97%
    08:00 +23°C° 1.3 mm 0 m/s 756 mmHg 97%
    09:00 +26°C° 0.8 mm 1 m/s 757 mmHg 96%
    10:00 +26°C° 0.8 mm 1 m/s 757 mmHg 96%
    11:00 +27°C° 0.8 mm 1 m/s 757 mmHg 95%
    12:00 +27°C° 0.2 mm 1 m/s 756 mmHg 93%
    13:00 +28°C° 0.2 mm 1 m/s 756 mmHg 91%
    14:00 +28°C° 0.2 mm 1 m/s 755 mmHg 88%
    15:00 +28°C° 0.2 mm 1 m/s 754 mmHg 89%
    16:00 +28°C° 0.2 mm 1 m/s 754 mmHg 89%
    17:00 +28°C° 0.2 mm 1 m/s 753 mmHg 89%
    18:00 +27°C° 0 mm 1 m/s 754 mmHg 92%
    19:00 +24°C° 0 mm 0 m/s 754 mmHg 94%
    20:00 +23°C° 0 mm 0 m/s 755 mmHg 96%
    21:00 +23°C° 0 mm 0 m/s 755 mmHg 97%
    22:00 +23°C° 0 mm 0 m/s 755 mmHg 97%
    23:00 +23°C° 0 mm 0 m/s 756 mmHg 97%
    Arată mai mult